Location: Brno
(49.2000°N, 16.6330°E)
Time: 01:47:46
(UTC+02:00)

Cosmos 2227 - Visible Passes

Search period start: 01 October 2016 00:00
Search period end: 11 October 2016 00:00
Orbit: 834 x 862 km, 71.0° (Epoch: 30 September)

Date Brightness Start Highest point End Pass type
(mag) Time Alt. Az. Time Alt. Az. Time Alt. Az.
01 Oct 6.9 03:43:34 10° SE 03:46:16 14° E 03:48:57 10° ENE visible
01 Oct 4.4 05:23:44 10° SSW 05:29:29 78° ESE 05:35:16 10° NNE visible
02 Oct 6.8 03:30:33 10° ESE 03:33:10 13° E 03:35:46 10° ENE visible
02 Oct 4.4 05:10:39 10° SSW 05:16:23 77° ESE 05:22:08 10° NNE visible
03 Oct 6.8 03:17:32 10° ESE 03:20:03 13° E 03:22:35 10° ENE visible
03 Oct 4.4 04:58:48 17° SSW 05:03:15 76° ESE 05:09:01 10° NNE visible
04 Oct 6.7 03:04:49 11° ESE 03:06:57 13° E 03:09:23 10° ENE visible
04 Oct 4.3 04:46:49 26° SSW 04:50:08 75° ESE 04:55:53 10° NNE visible
05 Oct 6.7 02:52:44 12° ESE 02:53:50 13° E 02:56:11 10° ENE visible
05 Oct 4.3 04:34:44 38° S 04:37:01 73° ESE 04:42:46 10° NNE visible
05 Oct 5.3 06:17:01 10° W 06:21:48 26° NW 06:26:35 10° NNE visible
06 Oct 6.7 02:40:33 12° E 02:40:44 12° E 02:42:58 10° ENE visible
06 Oct 4.3 04:22:32 52° S 04:23:54 72° ESE 04:29:39 10° NNE visible
06 Oct 5.3 06:04:31 13° W 06:08:39 26° NW 06:13:29 10° NNE visible
07 Oct 6.8 02:28:16 12° E 02:28:16 12° E 02:29:46 10° ENE visible
07 Oct 4.3 04:10:15 67° SSE 04:10:46 71° ESE 04:16:31 10° NNE visible
07 Oct 5.3 05:52:15 17° W 05:55:31 27° NW 06:00:21 10° NNE visible
08 Oct 6.9 02:15:56 11° E 02:15:56 11° E 02:16:33 10° ENE visible
08 Oct 4.4 03:57:55 69° E 03:57:55 69° E 04:03:23 10° NNE visible
08 Oct 5.3 05:39:53 20° W 05:42:23 27° NW 05:47:15 10° NNE visible
09 Oct 4.7 03:45:30 58° ENE 03:45:30 58° ENE 03:50:16 10° NNE visible
09 Oct 5.3 05:27:29 23° WNW 05:29:16 27° NW 05:34:07 10° NNE visible
10 Oct 5.1 03:33:03 46° NE 03:33:03 46° NE 03:37:08 10° NNE visible
10 Oct 5.3 05:15:01 26° WNW 05:16:08 28° NW 05:21:01 10° NNE visible
